IRIDIUM 135

Last updated on Sun Jun 21 2026 00:03:14 GMT+0000 (Coordinated Universal Time)

1 43070U 17083A 26171.36091678 .00000052 00000+0 11575-4 0 9999 2 43070 86.3968 320.6881 0002182 91.7844 268.3601 14.34217748444605
UTC large
Height (km)
Speed (km/s)
/
Latitude / Longitude
Inclination (degrees)
Orbital Period (minutes)
Azimuth
Elevation
Range (km)
Doppler Factor

Next 0 passes for location: London (51.5072 / 0.1276)

No passes found over London.
IRIDIUM 135